"2009-06-17 00:00:00",982385,5.507,213.6,6.335,0.457,19.53,108.698,21.55,22.52,25.69,0,110.9,13.19,22.38,175.6
"2009-06-17 00:00:30",982386,5.481,194.6,7.834,0.37,19.58,108.6952,21.54,22.51,25.43,0,110.9,13.19,22.37,156.6
"2009-06-17 00:01:00",982387,4.582,199,10.88,0.499,19.65,108.6722,21.48,22.47,25.45,0,110.9,13.19,22.31,161.0
"2009-06-17 00:01:30",982388,4.373,208.9,9.3,0.877,19.55,108.6692,21.48,22.46,25.53,0,110.9,13.19,22.30,170.9
"2009-06-17 00:02:00",982389,2.86,179,15.94,0.664,19.72,108.6707,21.48,22.46,25.59,0,110.9,13.19,22.31,141.0
"2009-06-17 00:02:30",982390,3.005,214.6,18.24,0.556,19.68,108.6704,21.48,22.45,25.58,0,110.9,13.19,22.31,176.6
"2009-06-17 00:03:00",982391,3.596,213.9,10.52,0.517,19.63,108.6673,21.47,22.43,25.58,0,110.9,13.19,22.30,175.9
"2009-06-17 00:03:30",982392,2.718,196,11.41,0.585,19.62,108.6465,21.42,22.42,25.67,0,110.9,13.19,22.25,158.0
"2009-06-17 00:04:00",982393,3.908,177,13.7,0.429,19.75,108.6375,21.4,22.4,25.64,0,110.9,13.19,22.22,139.0
"2009-06-17 00:04:30",982394,5.146,168,6.384,0.738,19.82,108.637,21.39,22.4,25.79,0,110.9,13.19,22.22,130.0
"2009-06-17 00:05:00",982395,4.913,183.8,11.04,0.588,20.46,108.6294,21.37,22.37,25.8,0,110.9,13.19,22.20,145.8
"2009-06-17 00:05:30",982396,4.312,201.4,7.602,0.808,20.16,108.6055,21.31,22.36,25.88,0,110.9,13.19,22.14,163.4
"2009-06-17 00:06:00",982397,4.022,195.2,6.786,0.456,17.56,108.6032,21.31,22.34,25.99,0,110.9,13.19,22.13,157.2
"2009-06-17 00:06:30",982398,3.53,198.2,11.83,0.506,5.754,108.5928,21.28,22.32,26.3,0,110.9,13.2,22.11,160.2
"2009-06-17 00:07:00",982399,8.32,207.8,11.35,1.24,19.91,108.5695,21.22,22.3,26.38,0,110.9,13.2,22.05,169.8
"2009-06-17 00:07:30",982400,6.705,222.5,6.436,0.972,18.69,108.5628,21.2,22.26,26.84,0,110.9,13.2,22.03,184.5
"2009-06-17 00:08:00",982401,5.031,217.9,6.07,0.444,19.9,108.5411,21.15,22.23,26.96,0,110.9,13.2,21.97,179.9
"2009-06-17 00:08:30",982402,5.884,227.3,4.241,0.717,19.46,108.5358,21.13,22.21,27.21,0,110.9,13.2,21.96,189.3
"2009-06-17 00:09:00",982403,5.554,224.4,8.03,0.283,19.58,108.5268,21.11,22.2,27.31,0,110.9,13.2,21.94,186.4
"2009-06-17 00:09:30",982404,6.214,196.6,9.39,1.484,19.32,108.5034,21.05,22.15,27.22,0,110.9,13.2,21.88,158.6
"2009-06-17 00:10:00",982405,7.843,216.4,14.96,0.931,18.57,108.4857,21.01,22.1,28.63,0,110.9,13.2,21.83,178.4
"2009-06-17 00:10:30",982406,9.6,233.1,4.117,0.534,18.73,108.4157,20.83,22,29.03,0,110.9,13.2,21.65,195.1
"2009-06-17 00:11:00",982407,7.014,231.2,11.08,1.685,18.87,108.402,20.79,21.93,28.99,0,110.9,13.2,21.62,193.2
"2009-06-17 00:11:30",982408,6.409,266.9,6.988,0.497,19.04,108.3913,20.76,21.88,29.02,0,110.9,13.2,21.59,228.9
"2009-06-17 00:12:00",982409,6.235,267.1,3.448,0.738,-6.706,108.3712,20.71,21.87,29.2,0,110.9,13.2,21.54,229.1
"2009-06-17 00:12:30",982410,5.063,262.1,7.152,0.81,19.51,108.3669,20.7,21.83,29.46,0,110.9,13.2,21.53,224.1
"2009-06-17 00:13:00",982411,5.094,301.1,12.7,1.189,18.88,108.3415,20.64,21.79,29.4,0,110.8,13.2,21.46,263.1
"2009-06-17 00:13:30",982412,5.65,282.8,24.84,1.252,18.78,108.3381,20.63,21.75,29.5,0,110.8,13.2,21.45,244.8
"2009-06-17 00:14:00",982413,7.816,281.7,3.302,1.176,18.63,108.3118,20.56,21.71,29.77,0,110.8,13.2,21.38,243.7
"2009-06-17 00:14:30",982414,8.3,285.3,8.1,0.936,18.32,108.2608,20.43,21.6,30.5,0,110.8,13.2,21.25,247.3
"2009-06-17 00:15:00",982415,9.45,285.8,4.382,0.915,18.44,108.2064,20.29,21.48,30.72,0,110.8,13.2,21.11,247.8
"2009-06-17 00:15:30",982416,8.14,281.7,3.495,0.331,-14.24,108.1812,20.22,21.4,30.95,0,110.8,13.2,21.05,243.7
"2009-06-17 00:16:00",982417,7.599,290.1,8.99,1.209,-26.29,108.1679,20.19,21.37,30.86,0,110.8,13.2,21.01,252.1
"2009-06-17 00:16:30",982418,3.803,313.8,11.38,0.743,-20.82,108.1366,20.11,21.35,29.31,0,110.8,13.2,20.93,275.8
"2009-06-17 00:17:00",982419,3.367,305.5,5.301,0.445,7.246,108.1098,20.04,21.28,29.18,0,110.8,13.21,20.86,267.5
"2009-06-17 00:17:30",982420,2.848,318.9,6.232,0.29,19.65,108.0872,19.98,21.22,29.61,0,110.8,13.21,20.81,280.9
"2009-06-17 00:18:00",982421,3.522,311.2,8.27,0.99,19.51,108.0644,19.92,21.16,30.48,0,110.8,13.21,20.75,273.2
"2009-06-17 00:18:30",982422,4.707,305.3,4.771,0.734,19.46,108.0299,19.84,21.06,31.47,0,110.8,13.2,20.66,267.3
"2009-06-17 00:19:00",982423,4.313,304,9.05,0.636,19.13,107.9939,19.74,20.97,31.87,0,110.8,13.2,20.56,266.0
"2009-06-17 00:19:30",982424,4.235,312.4,3.807,0.294,18.94,107.9649,19.67,20.87,32.27,0,110.8,13.2,20.49,274.4
"2009-06-17 00:20:00",982425,5.535,307.3,4.051,1.487,18.75,107.9477,19.63,20.82,32.14,0,110.8,13.2,20.45,269.3
"2009-06-17 00:20:30",982426,8.62,306.7,3.297,0.682,18.59,107.9312,19.58,20.76,32.47,0,110.8,13.2,20.40,268.7
"2009-06-17 00:21:00",982427,7.809,304,3.146,0.446,18.61,107.9252,19.57,20.73,32.14,0,110.8,13.2,20.39,266.0
"2009-06-17 00:21:30",982428,7.922,305.2,3,0.397,18.78,107.8997,19.5,20.67,31.79,0,110.8,13.2,20.32,267.2
"2009-06-17 00:22:00",982429,7.405,300.8,1.412,0.588,18.78,107.8974,19.5,20.63,31.5,0,110.8,13.2,20.32,262.8
"2009-06-17 00:22:30",982430,6.996,305.1,3.5,0.28,18.7,107.8974,19.5,20.59,31.64,0,110.8,13.2,20.32,267.1
"2009-06-17 00:23:00",982431,7.172,303.3,2.114,0.295,18.74,107.8974,19.5,20.58,31.45,0,110.8,13.21,20.32,265.3
"2009-06-17 00:23:30",982432,7.459,304,3.368,0.339,18.52,107.9036,19.51,20.56,31.65,0,110.8,13.21,20.33,266.0
"2009-06-17 00:24:00",982433,8.99,304,4.3,0.412,18.19,107.9039,19.51,20.56,31.91,0,110.8,13.21,20.33,266.0
"2009-06-17 00:24:30",982434,9.73,302,2.478,0.562,17.99,107.8977,19.5,20.55,32.63,0,110.8,13.21,20.32,264.0
"2009-06-17 00:25:00",982435,10.67,300.6,2.263,0.352,18.3,107.8974,19.5,20.53,32.58,0,110.8,13.21,20.32,262.6
"2009-06-17 00:25:30",982436,11.91,297.7,1.623,0.424,18.22,107.8974,19.5,20.52,32.42,0,110.8,13.21,20.32,259.7
"2009-06-17 00:26:00",982437,10.73,297.5,1.822,0.464,18.27,107.8971,19.5,20.51,32.32,0,110.8,13.21,20.32,259.5
"2009-06-17 00:26:30",982438,10.42,299.6,1.759,0.384,18.16,107.8926,19.48,20.51,32.4,0,110.8,13.22,20.30,261.6
"2009-06-17 00:27:00",982439,11.34,298.2,2.249,0.654,18.47,107.876,19.44,20.5,32.31,0,110.8,13.22,20.26,260.2
"2009-06-17 00:27:30",982440,10.23,297.7,1.557,0.317,18.55,107.8663,19.42,20.49,31.98,0,110.8,13.22,20.24,259.7
"2009-06-17 00:28:00",982441,10.36,296.9,1.608,0.555,18.52,107.8667,19.42,20.47,31.94,0,110.8,13.22,20.24,258.9
"2009-06-17 00:28:30",982442,10.06,293.9,1.914,0.726,18.54,107.8721,19.43,20.46,31.88,0,110.8,13.22,20.25,255.9
"2009-06-17 00:29:00",982443,10.08,296.4,2.393,0.443,18.46,107.8752,19.44,20.46,31.91,0,110.8,13.22,20.26,258.4
"2009-06-17 00:29:30",982444,9.77,299.8,3.292,0.305,18.45,107.877,19.44,20.45,31.87,0,110.8,13.22,20.26,261.8
"2009-06-17 00:30:00",982445,10.11,304,2.523,0.449,18.48,107.8806,19.45,20.45,31.96,0,110.8,13.22,20.27,266.0
"2009-06-17 00:30:30",982446,9.46,305.9,4.007,0.707,18.54,107.8849,19.46,20.45,31.77,0,110.8,13.22,20.28,267.9
"2009-06-17 00:31:00",982447,9.11,308.6,3.616,0.465,18.58,107.8879,19.47,20.45,31.75,0,110.8,13.22,20.29,270.6
"2009-06-17 00:31:30",982448,8.54,311,5.082,0.83,18.52,107.8891,19.48,20.45,31.7,0,110.8,13.22,20.30,273.0
"2009-06-17 00:32:00",982449,9.09,309.8,6.484,1.699,18.47,107.8897,19.48,20.46,31.72,0,110.8,13.22,20.30,271.8
"2009-06-17 00:32:30",982450,11.6,309,2.486,0.308,18.48,107.8913,19.48,20.46,31.73,0,110.8,13.22,20.30,271.0
"2009-06-17 00:33:00",982451,11.53,309,1.432,0.214,18.29,107.8931,19.49,20.46,31.89,0,110.8,13.22,20.31,271.0
"2009-06-17 00:33:30",982452,11.84,309.3,1.35,0.305,18.28,107.8946,19.49,20.47,31.99,0,110.8,13.22,20.31,271.3
"2009-06-17 00:34:00",982453,12.09,311.1,1.255,0.173,18.16,107.897,19.5,20.48,32.13,0,110.8,13.22,20.32,273.1
"2009-06-17 00:34:30",982454,12.08,311.4,1.491,0.329,18.14,107.9005,19.5,20.48,32.38,0,110.8,13.22,20.32,273.4
"2009-06-17 00:35:00",982455,12.75,309.5,0.678,0.21,18.11,107.9011,19.51,20.48,32.32,0,110.8,13.22,20.33,271.5
"2009-06-17 00:35:30",982456,12.59,308.7,0.921,0.249,18.23,107.9006,19.5,20.49,32.19,0,110.8,13.22,20.32,270.7
"2009-06-17 00:36:00",982457,12.8,311.6,1.92,0.278,18.22,107.9,19.5,20.5,32.3,0,110.8,13.22,20.32,273.6
"2009-06-17 00:36:30",982458,12.44,311.5,1.586,0.451,18.5,107.9001,19.5,20.49,31.98,0,110.8,13.21,20.32,273.5
"2009-06-17 00:37:00",982459,12.19,312.7,0.497,0.173,18.16,107.9001,19.5,20.49,32.21,0,110.8,13.21,20.32,274.7
"2009-06-17 00:37:30",982460,12.38,314.8,0.951,0.255,18.16,107.9001,19.5,20.5,32.21,0,110.8,13.21,20.32,276.8
"2009-06-17 00:38:00",982461,12.12,313.3,1.708,0.4,18.49,107.9001,19.5,20.49,32.04,0,110.8,13.21,20.32,275.3
"2009-06-17 00:38:30",982462,11.71,312.5,0.623,0.136,18.19,107.9001,19.5,20.49,32.18,0,110.8,13.21,20.32,274.5
"2009-06-17 00:39:00",982463,11.71,313.6,0.957,0.094,18.2,107.9001,19.5,20.47,32.29,0,110.7,13.21,20.32,275.6
"2009-06-17 00:39:30",982464,11.61,314.2,0.864,0.18,18.26,107.9001,19.5,20.48,32.24,0,110.8,13.21,20.32,276.2
"2009-06-17 00:40:00",982465,11.29,314.9,0.38,0.133,18.29,107.893,19.49,20.47,32.23,0,110.7,13.22,20.31,276.9
"2009-06-17 00:40:30",982466,11.01,315.4,0.578,0.09,18.31,107.8888,19.47,20.45,32.17,0,110.7,13.22,20.29,277.4
"2009-06-17 00:41:00",982467,11.1,315.7,0.82,0.113,18.33,107.8719,19.43,20.46,32.05,0,110.7,13.23,20.25,277.7
"2009-06-17 00:41:30",982468,11.04,317.5,1.313,0.193,18.32,107.8666,19.42,20.44,32.02,0,110.7,13.23,20.24,279.5
"2009-06-17 00:42:00",982469,10.68,318.2,2.04,0.177,18.34,107.8663,19.42,20.44,31.95,0,110.8,13.23,20.24,280.2
"2009-06-17 00:42:30",982470,10.57,317.9,2.005,0.225,18.32,107.8663,19.42,20.44,31.92,0,110.8,13.23,20.24,279.9
"2009-06-17 00:43:00",982471,10.2,314.9,2.31,0.296,18.24,107.8663,19.42,20.43,32.06,0,110.8,13.23,20.24,276.9
"2009-06-17 00:43:30",982472,10.04,313.4,0.898,0.169,18.17,107.866,19.42,20.43,32.17,0,110.8,13.23,20.24,275.4
"2009-06-17 00:44:00",982473,10.37,314,0.709,0.202,18.31,107.8632,19.41,20.42,32.19,0,110.8,13.23,20.23,276.0
"2009-06-17 00:44:30",982474,10.33,312.7,1.208,0.13,18.36,107.8579,19.4,20.4,32.14,0,110.8,13.23,20.21,274.7
"2009-06-17 00:45:00",982475,10.79,312.5,0.784,0.126,18.31,107.8517,19.38,20.39,32.13,0,110.8,13.23,20.20,274.5
"2009-06-17 00:45:30",982476,10.86,311.5,1.144,0.157,18.35,107.8415,19.35,20.41,32.12,0,110.8,13.23,20.17,273.5
"2009-06-17 00:46:00",982477,10.91,310.7,0.888,0.384,18.14,107.8348,19.34,20.4,32.3,0,110.8,13.23,20.16,272.7
"2009-06-17 00:46:30",982478,11.93,310.7,0.804,0.229,17.89,107.8325,19.33,20.39,32.97,0,110.7,13.23,20.15,272.7
"2009-06-17 00:47:00",982479,12.46,310.9,0.91,0.22,17.82,107.8325,19.33,20.38,33.39,0,110.7,13.23,20.15,272.9
"2009-06-17 00:47:30",982480,12.3,309.8,0.499,0.165,17.63,107.8325,19.33,20.38,34.4,0,110.7,13.23,20.15,271.8
"2009-06-17 00:48:00",982481,12.19,310.2,1.46,0.193,17.72,107.8325,19.33,20.38,34.85,0,110.7,13.23,20.15,272.2
"2009-06-17 00:48:30",982482,11.94,309.7,1.75,0.467,17.7,107.8269,19.32,20.37,35.15,0,110.8,13.23,20.14,271.7
"2009-06-17 00:49:00",982483,11.54,308.8,0.901,0.169,17.79,107.7999,19.25,20.35,35.37,0,110.8,13.23,20.07,270.8
"2009-06-17 00:49:30",982484,11.5,308.4,0.49,0.125,18.39,107.7988,19.24,20.32,33.93,0,110.8,13.23,20.06,270.4
"2009-06-17 00:50:00",982485,11.49,308.5,1.063,0.246,18.08,107.778,19.19,20.3,33.46,0,110.8,13.23,20.01,270.5
"2009-06-17 00:50:30",982486,11.72,309.2,0.53,0.267,18.42,107.769,19.17,20.28,33.72,0,110.8,13.23,19.99,271.2
"2009-06-17 00:51:00",982487,11.8,309.3,0.45,0.097,18.29,107.7666,19.16,20.25,33.22,0,110.8,13.23,19.98,271.3
"2009-06-17 00:51:30",982488,11.59,309.1,0.533,0.109,18.31,107.7509,19.12,20.24,33.16,0,110.8,13.23,19.94,271.1
"2009-06-17 00:52:00",982489,11.39,308.3,0.483,0.077,18.26,107.7361,19.08,20.2,33.18,0,110.8,13.23,19.90,270.3
"2009-06-17 00:52:30",982490,11.62,309.1,0.903,0.166,18.1,107.7397,19.09,20.18,33.45,0,110.8,13.23,19.91,271.1
"2009-06-17 00:53:00",982491,11.45,310.1,0.5,0.172,17.93,107.7404,19.09,20.19,33.9,0,110.7,13.23,19.91,272.1
"2009-06-17 00:53:30",982492,12.45,308.4,0.606,0.226,17.5,107.7402,19.09,20.17,34.9,0,110.8,13.23,19.91,270.4
"2009-06-17 00:54:00",982493,12.6,309.4,0.825,0.222,17.43,107.727,19.06,20.14,35.66,0,110.7,13.23,19.88,271.4
"2009-06-17 00:54:30",982494,12.62,310.5,0.47,0.185,17.69,107.712,19.02,20.12,35.52,0,110.7,13.23,19.84,272.5
"2009-06-17 00:55:00",982495,12.37,309.6,0.609,0.067,17.82,107.7102,19.02,20.11,34.99,0,110.7,13.23,19.83,271.6
"2009-06-17 00:55:30",982496,12.08,310,0.522,0.193,17.9,107.7119,19.02,20.09,34.75,0,110.7,13.23,19.84,272.0
"2009-06-17 00:56:00",982497,11.81,311.3,0.901,0.109,18.05,107.6878,18.96,20.06,34.58,0,110.7,13.23,19.78,273.3
"2009-06-17 00:56:30",982498,11.43,312.4,0.532,0.118,18.11,107.681,18.94,20.05,34.36,0,110.7,13.23,19.76,274.4
"2009-06-17 00:57:00",982499,11.06,311.8,0.529,0.175,18.1,107.6825,18.95,20.03,34.24,0,110.7,13.23,19.76,273.8
"2009-06-17 00:57:30",982500,10.94,314,0.814,0.164,18,107.6884,18.96,20,34.4,0,110.7,13.24,19.78,276.0
"2009-06-17 00:58:00",982501,11.01,314.8,0.348,0.132,18.01,107.6738,18.92,19.99,34.39,0,110.7,13.24,19.74,276.8
"2009-06-17 00:58:30",982502,10.86,316.5,2.42,0.133,17.95,107.6613,18.89,19.97,34.4,0,110.7,13.24,19.71,278.5
"2009-06-17 00:59:00",982503,11.24,321.4,0.942,0.134,17.69,107.66,18.89,19.94,35.04,0,110.7,13.24,19.71,283.4
"2009-06-17 00:59:30",982504,11.01,323.9,1.299,0.224,17.79,107.6624,18.89,19.93,35.23,0,110.7,13.24,19.71,285.9
"2009-06-17 01:00:00",982505,10.64,326.8,0.537,0.127,17.9,107.6629,18.89,19.92,35.4,0,110.7,13.25,19.71,288.8
"2009-06-17 01:00:30",982506,10.24,326.5,0.958,0.118,17.77,107.6536,18.87,19.9,35.61,0,110.7,13.25,19.69,288.5
"2009-06-17 01:01:00",982507,10.05,325.5,0.714,0.195,17.96,107.6339,18.82,19.88,35.71,0,110.7,13.25,19.64,287.5
"2009-06-17 01:01:30",982508,10.34,323.6,0.48,0.111,17.86,107.6326,18.82,19.87,35.85,0,110.7,13.25,19.63,285.6
"2009-06-17 01:02:00",982509,10.29,324.6,0.868,0.146,17.86,107.6326,18.82,19.85,35.94,0,110.7,13.25,19.63,286.6
"2009-06-17 01:02:30",982510,10.66,327.2,1.034,0.157,17.8,107.6326,18.82,19.84,36.07,0,110.7,13.25,19.63,289.2
"2009-06-17 01:03:00",982511,10.47,327,1.06,0.143,17.78,107.6185,18.78,19.83,36.2,0,110.7,13.25,19.60,289.0
"2009-06-17 01:03:30",982512,10.26,328.4,1.046,0.159,17.72,107.6013,18.74,19.82,36.25,0,110.7,13.25,19.55,290.4
"2009-06-17 01:04:00",982513,10.11,327.8,1.444,0.254,17.7,107.5988,18.73,19.8,36.37,0,110.7,13.25,19.55,289.8
"2009-06-17 01:04:30",982514,9.63,325.6,1.285,0.177,17.67,107.5988,18.73,19.77,36.44,0,110.7,13.25,19.55,287.6
"2009-06-17 01:05:00",982515,9.65,326.2,1.054,0.25,17.72,107.5979,18.73,19.77,36.55,0,110.7,13.25,19.55,288.2
"2009-06-17 01:05:30",982516,9.46,326.3,1.017,0.142,17.75,107.5844,18.69,19.76,36.42,0,110.7,13.25,19.51,288.3
"2009-06-17 01:06:00",982517,9.37,326.5,0.968,0.074,17.82,107.5667,18.65,19.73,36.35,0,110.7,13.25,19.47,288.5
"2009-06-17 01:06:30",982518,9.53,331.3,2.414,0.133,17.94,107.565,18.64,19.72,36.33,0,110.7,13.25,19.46,293.3
"2009-06-17 01:07:00",982519,9.51,335.5,1.487,0.124,17.93,107.565,18.64,19.69,36.25,0,110.7,13.25,19.46,297.5
"2009-06-17 01:07:30",982520,9.51,336.2,1.193,0.221,17.96,107.5532,18.61,19.68,36.22,0,110.7,13.25,19.43,298.2
"2009-06-17 01:08:00",982521,9.25,335.2,1.61,0.245,17.92,107.5369,18.57,19.67,36.2,0,110.7,13.25,19.39,297.2
"2009-06-17 01:08:30",982522,8.86,337.8,2.153,0.235,18,107.5312,18.56,19.66,36.21,0,110.7,13.25,19.37,299.8
"2009-06-17 01:09:00",982523,8.66,335.2,1.879,0.249,17.91,107.5312,18.56,19.64,36.21,0,110.7,13.25,19.37,297.2
"2009-06-17 01:09:30",982524,8.39,332,1.522,0.24,17.89,107.5312,18.56,19.6,36.27,0,110.7,13.25,19.37,294.0
"2009-06-17 01:10:00",982525,8.26,329.2,1.068,0.124,17.87,107.5312,18.56,19.61,36.31,0,110.7,13.25,19.37,291.2
"2009-06-17 01:10:30",982526,8.57,328.3,0.504,0.091,17.71,107.5304,18.56,19.61,36.29,0,110.7,13.25,19.37,290.3
"2009-06-17 01:11:00",982527,8.61,328.5,1.199,0.144,17.72,107.5228,18.54,19.59,36.26,0,110.7,13.25,19.35,290.5
"2009-06-17 01:11:30",982528,8.39,330.4,2.472,0.201,17.87,107.5096,18.5,19.57,36.19,0,110.7,13.25,19.32,292.4
"2009-06-17 01:12:00",982529,8.43,328.6,1.021,0.165,17.91,107.4994,18.48,19.58,36.11,0,110.7,13.25,19.29,290.6
"2009-06-17 01:12:30",982530,8.51,330.5,0.875,0.139,17.83,107.4975,18.47,19.56,36.07,0,110.7,13.25,19.29,292.5
"2009-06-17 01:13:00",982531,8.23,331,0.559,0.121,17.92,107.4975,18.47,19.55,36.07,0,110.7,13.25,19.29,293.0
"2009-06-17 01:13:30",982532,8.33,327.9,0.565,0.114,17.85,107.4975,18.47,19.54,36.16,0,110.7,13.25,19.29,289.9
"2009-06-17 01:14:00",982533,8.22,328.3,0.671,0.162,17.81,107.4975,18.47,19.54,36.21,0,110.7,13.25,19.29,290.3
"2009-06-17 01:14:30",982534,7.985,328.2,0.927,0.122,17.74,107.4975,18.47,19.52,36.23,0,110.7,13.25,19.29,290.2
"2009-06-17 01:15:00",982535,7.974,328,0.515,0.186,17.79,107.4975,18.47,19.52,36.26,0,110.7,13.25,19.29,290.0
"2009-06-17 01:15:30",982536,7.554,328.8,0.681,0.121,17.88,107.4975,18.47,19.52,36.19,0,110.7,13.25,19.29,290.8
"2009-06-17 01:16:00",982537,7.446,329.9,0.708,0.116,17.9,107.4976,18.47,19.51,36.16,0,110.7,13.25,19.29,291.9
"2009-06-17 01:16:30",982538,7.639,330.1,0.935,0.087,17.92,107.4921,18.46,19.5,36.24,0,110.7,13.25,19.27,292.1
"2009-06-17 01:17:00",982539,7.462,330.9,0.714,0.154,18.02,107.4885,18.45,19.51,36.15,0,110.7,13.26,19.26,292.9
"2009-06-17 01:17:30",982540,7.421,330.3,1.829,0.092,17.93,107.482,18.43,19.5,36.05,0,110.7,13.26,19.25,292.3
"2009-06-17 01:18:00",982541,7.641,330.6,1.214,0.142,17.91,107.4784,18.42,19.49,36.16,0,110.7,13.26,19.24,292.6
"2009-06-17 01:18:30",982542,7.517,330.6,0.986,0.109,17.91,107.4752,18.41,19.49,36.08,0,110.7,13.26,19.23,292.6
"2009-06-17 01:19:00",982543,7.549,329.9,0.933,0.081,17.89,107.472,18.41,19.49,36.08,0,110.7,13.26,19.22,291.9
"2009-06-17 01:19:30",982544,7.426,330.3,1.092,0.08,17.9,107.4713,18.4,19.49,36.09,0,110.7,13.26,19.22,292.3
"2009-06-17 01:20:00",982545,7.371,330.2,1.062,0.103,17.97,107.4714,18.4,19.47,36.1,0,110.7,13.26,19.22,292.2
"2009-06-17 01:20:30",982546,7.148,331.2,1.555,0.157,18,107.4706,18.4,19.49,36.04,0,110.7,13.26,19.22,293.2
"2009-06-17 01:21:00",982547,6.943,330.3,1.387,0.169,17.91,107.4721,18.41,19.48,35.97,0,110.7,13.26,19.22,292.3
"2009-06-17 01:21:30",982548,7.23,330.1,0.983,0.065,18.05,107.4779,18.42,19.48,35.95,0,110.7,13.26,19.24,292.1
"2009-06-17 01:22:00",982549,7.19,329.4,1.124,0.093,17.96,107.4782,18.42,19.47,35.94,0,110.7,13.26,19.24,291.4
"2009-06-17 01:22:30",982550,7.134,331.4,0.743,0.119,18,107.48,18.43,19.48,35.91,0,110.7,13.26,19.24,293.4
"2009-06-17 01:23:00",982551,7.116,333.5,1.652,0.085,18.02,107.4788,18.42,19.48,35.91,0,110.7,13.26,19.24,295.5
"2009-06-17 01:23:30",982552,7.428,335,0.769,0.262,18,107.4815,18.43,19.48,35.87,0,110.7,13.26,19.25,297.0
"2009-06-17 01:24:00",982553,7.664,336.1,0.656,0.122,18.06,107.4827,18.43,19.48,35.87,0,110.7,13.26,19.25,298.1
"2009-06-17 01:24:30",982554,7.703,334.5,0.536,0.146,17.97,107.4886,18.45,19.49,35.87,0,110.7,13.26,19.26,296.5
"2009-06-17 01:25:00",982555,7.773,333.9,0.421,0.062,17.97,107.4898,18.45,19.49,35.91,0,110.7,13.26,19.27,295.9
"2009-06-17 01:25:30",982556,7.896,331.2,1.063,0.109,17.84,107.4913,18.45,19.49,35.93,0,110.7,13.26,19.27,293.2
"2009-06-17 01:26:00",982557,7.821,329.2,0.792,0.103,17.83,107.4939,18.46,19.49,35.94,0,110.7,13.25,19.28,291.2
"2009-06-17 01:26:30",982558,8.16,326.5,0.949,0.153,17.78,107.4947,18.46,19.51,36,0,110.7,13.25,19.28,288.5
"2009-06-17 01:27:00",982559,8.22,327,0.582,0.094,17.73,107.4976,18.47,19.5,36.09,0,110.7,13.25,19.29,289.0
"2009-06-17 01:27:30",982560,8.26,328.4,0.735,0.065,17.87,107.4988,18.47,19.49,36.24,0,110.7,13.25,19.29,290.4
"2009-06-17 01:28:00",982561,8.16,328.3,0.352,0.104,17.84,107.5024,18.48,19.49,36.21,0,110.7,13.25,19.30,290.3
"2009-06-17 01:28:30",982562,8.17,328.6,0.513,0.1,17.88,107.5009,18.48,19.49,36.2,0,110.7,13.25,19.30,290.6
"2009-06-17 01:29:00",982563,7.913,328.9,0.619,0.089,17.84,107.5016,18.48,19.5,36.18,0,110.7,13.25,19.30,290.9
"2009-06-17 01:29:30",982564,7.795,329,0.742,0.097,17.85,107.5001,18.48,19.51,36.18,0,110.7,13.25,19.29,291.0
"2009-06-17 01:30:00",982565,7.628,328.4,0.781,0.1,17.91,107.499,18.47,19.5,36.18,0,110.7,13.25,19.29,290.4
"2009-06-17 01:30:30",982566,7.618,328.1,0.784,0.083,17.89,107.4987,18.47,19.49,36.13,0,110.7,13.25,19.29,290.1
"2009-06-17 01:31:00",982567,7.671,328.7,0.765,0.073,17.9,107.4985,18.47,19.51,36.01,0,110.7,13.26,19.29,290.7
"2009-06-17 01:31:30",982568,7.42,327.7,1.857,0.08,17.91,107.5,18.48,19.49,36.02,0,110.7,13.26,19.29,289.7
"2009-06-17 01:32:00",982569,7.259,325.3,1.021,0.064,17.89,107.5,18.48,19.5,35.95,0,110.7,13.26,19.29,287.3
"2009-06-17 01:32:30",982570,7.114,323.6,0.873,0.075,18.06,107.4994,18.48,19.49,35.94,0,110.7,13.26,19.29,285.6
"2009-06-17 01:33:00",982571,7.135,325.1,1.594,0.087,17.87,107.4997,18.48,19.48,35.92,0,110.7,13.26,19.29,287.1
"2009-06-17 01:33:30",982572,7.025,326.8,1.192,0.096,17.88,107.5,18.48,19.5,35.95,0,110.7,13.26,19.29,288.8
"2009-06-17 01:34:00",982573,6.963,328.4,0.906,0.06,17.85,107.5,18.48,19.49,36.06,0,110.7,13.26,19.29,290.4
"2009-06-17 01:34:30",982574,6.925,330.3,0.587,0.047,17.78,107.4997,18.48,19.49,36.08,0,110.7,13.26,19.29,292.3
"2009-06-17 01:35:00",982575,7.009,331.2,0.652,0.044,17.85,107.5,18.48,19.48,36.19,0,110.7,13.26,19.29,293.2
"2009-06-17 01:35:30",982576,7.068,332.5,0.844,0.123,17.88,107.5,18.48,19.49,36.3,0,110.7,13.26,19.29,294.5
"2009-06-17 01:36:00",982577,7.406,335,0.714,0.081,18,107.5,18.48,19.5,36.37,0,110.7,13.26,19.29,297.0
"2009-06-17 01:36:30",982578,7.483,336.1,0.501,0.066,17.92,107.5,18.48,19.47,36.32,0,110.7,13.26,19.29,298.1
"2009-06-17 01:37:00",982579,7.349,335.6,0.568,0.068,17.97,107.5,18.48,19.47,36.28,0,110.7,13.26,19.29,297.6
"2009-06-17 01:37:30",982580,7.429,335.7,0.529,0.217,17.99,107.5,18.48,19.48,36.27,0,110.7,13.26,19.29,297.7
"2009-06-17 01:38:00",982581,7.713,336.4,0.685,0.058,17.91,107.5,18.48,19.48,36.31,0,110.7,13.26,19.29,298.4
"2009-06-17 01:38:30",982582,7.675,337.3,1.062,0.078,17.83,107.5,18.48,19.47,36.39,0,110.7,13.26,19.29,299.3
"2009-06-17 01:39:00",982583,7.884,336.5,0.711,0.217,17.81,107.5,18.48,19.48,36.48,0,110.7,13.26,19.29,298.5
"2009-06-17 01:39:30",982584,7.703,337.7,0.986,0.317,17.74,107.5,18.48,19.48,36.64,0,110.7,13.26,19.29,299.7
"2009-06-17 01:40:00",982585,7.367,337.9,0.984,0.114,17.88,107.5,18.48,19.48,36.49,0,110.7,13.26,19.29,299.9
"2009-06-17 01:40:30",982586,7.242,336.5,0.728,0.145,17.93,107.4989,18.47,19.46,36.37,0,110.7,13.26,19.29,298.5
"2009-06-17 01:41:00",982587,7.489,336.7,1.129,0.145,18.02,107.4961,18.47,19.48,36.32,0,110.7,13.26,19.28,298.7
"2009-06-17 01:41:30",982588,7.534,338.5,1.27,0.13,18.08,107.493,18.46,19.46,36.29,0,110.7,13.26,19.28,300.5
"2009-06-17 01:42:00",982589,7.521,337.2,1.207,0.226,18.04,107.4916,18.46,19.46,36.25,0,110.7,13.26,19.27,299.2
"2009-06-17 01:42:30",982590,7.23,337.9,0.933,0.161,18.04,107.4893,18.45,19.46,36.26,0,110.7,13.26,19.27,299.9
"2009-06-17 01:43:00",982591,7.267,339.5,1.063,0.13,18.01,107.4884,18.45,19.47,36.21,0,110.7,13.26,19.26,301.5
"2009-06-17 01:43:30",982592,7.159,341,0.646,0.113,18.04,107.4901,18.45,19.44,36.2,0,110.7,13.26,19.27,303.0
"2009-06-17 01:44:00",982593,7.212,343.1,1.05,0.154,18.12,107.4899,18.45,19.44,36.18,0,110.7,13.26,19.27,305.1
"2009-06-17 01:44:30",982594,7.272,343.5,1.135,0.087,18.08,107.4907,18.45,19.44,36.17,0,110.7,13.26,19.27,305.5
"2009-06-17 01:45:00",982595,7.386,344.8,1.424,0.175,18.13,107.4918,18.46,19.45,36.21,0,110.7,13.26,19.27,306.8
"2009-06-17 01:45:30",982596,7.785,346.1,1.357,0.141,18.12,107.491,18.45,19.45,36.33,0,110.7,13.26,19.27,308.1
"2009-06-17 01:46:00",982597,7.909,347.5,1.176,0.113,18.22,107.4921,18.46,19.44,36.43,0,110.7,13.26,19.27,309.5
"2009-06-17 01:46:30",982598,8.11,347.4,0.933,0.145,18.25,107.493,18.46,19.44,36.53,0,110.7,13.26,19.28,309.4
"2009-06-17 01:47:00",982599,8.56,346.6,0.709,0.231,18.23,107.489,18.45,19.44,36.68,0,110.7,13.26,19.27,308.6
"2009-06-17 01:47:30",982600,8.98,347.2,0.975,0.392,18.24,107.4868,18.44,19.43,36.58,0,110.7,13.26,19.26,309.2
"2009-06-17 01:48:00",982601,9.43,346.9,0.535,0.099,18.15,107.4786,18.42,19.44,36.34,0,110.7,13.26,19.24,308.9